Wind_Speed
14 13 12 12 12 12 11 11 11 11 11 10 10 10 9 9 9 8 8 8 8 8 8 8 8 8 8 7 7 7 7 7 6 6 6 6 7 7 7 7 8 8
15 14 13 12 12 11 11 11 11 11 11 10 10 9 8 9 9 9 9 8 9 8 8 8 8 8 8 7 7 7 8 7 7 7 6 6 6 7 7 8 8 8
15 14 14 13 12 12 12 12 12 11 11 10 10 9 8 9 9 9 9 9 9 8 8 8 8 8 8 7 8 8 7 8 7 7 7 7 7 7 8 8 9 9
17 16 15 15 14 14 13 13 12 12 11 10 10 9 9 10 9 9 9 9 9 9 9 9 9 9 9 8 9 8 7 8 7 6 6 7 7 8 8 8 9 8
18 17 17 16 16 15 14 13 13 12 12 11 10 10 10 10 10 10 10 10 10 9 9 10 9 9 9 9 9 9 8 8 7 6 6 6 7 8 8 8 8 8
18 18 18 17 17 16 15 14 14 13 12 12 12 11 11 11 11 11 11 10 11 10 10 10 10 10 9 9 9 9 8 7 6 5 5 5 6 7 7 7 7 7
18 18 18 18 17 17 16 15 15 14 14 14 13 13 12 12 12 11 11 11 11 11 12 11 10 9 9 8 9 9 8 7 6 6 5 4 5 6 6 7 7 7
18 18 18 18 18 17 17 16 16 15 15 15 14 13 12 12 12 12 12 12 12 12 12 12 10 10 9 9 8 8 8 7 7 6 5 5 6 6 6 7 7 8
18 18 19 19 19 18 18 17 17 17 16 16 15 14 14 13 13 13 13 12 13 13 13 13 12 11 11 10 9 9 8 8 8 7 6 6 7 7 7 7 8 8
19 19 19 19 19 19 19 18 18 18 18 17 16 15 15 14 14 14 14 13 14 14 14 14 13 13 12 12 11 10 10 9 9 9 8 8 8 8 8 9 9 9
20 20 20 20 20 20 20 19 19 19 20 19 18 17 17 17 16 15 14 14 14 15 15 15 15 14 14 14 13 12 12 11 11 10 10 10 10 10 10 10 10 11
21 21 21 21 21 21 21 21 21 21 21 20 19 20 19 18 18 16 15 15 15 15 16 16 16 16 16 15 14 14 14 13 12 12 11 11 11 12 11 11 12 12
22 22 21 21 22 22 23 22 23 23 23 21 20 21 21 20 19 18 17 16 16 16 16 17 17 17 17 17 16 16 15 14 14 13 13 13 13 13 13 13 13 13
24 24 23 23 23 23 24 24 24 25 25 24 22 22 23 22 21 21 19 18 18 17 17 17 17 17 17 17 17 17 17 16 16 15 15 15 15 14 14 14 13 13
27 27 26 25 25 24 24 25 26 26 27 27 26 25 25 23 23 23 22 20 20 19 18 17 17 16 17 17 18 18 18 18 18 18 17 17 16 15 15 14 14 13
31 31 30 28 26 26 25 25 26 26 27 28 28 28 27 26 25 25 24 23 22 21 19 18 18 17 17 18 18 18 18 18 19 19 17 16 16 16 16 15 15 14
35 34 34 31 28 27 27 27 27 27 27 28 28 29 29 28 26 26 25 24 24 23 21 20 20 20 20 20 19 19 20 20 20 20 18 17 18 18 17 17 17 16
39 37 36 35 31 29 28 29 29 29 28 27 27 28 29 29 28 27 26 25 25 25 23 22 21 22 23 23 21 21 21 21 21 21 21 20 20 20 19 19 19 18
42 40 38 37 35 32 30 31 31 31 30 29 28 28 29 29 29 29 28 27 26 26 25 24 23 23 25 25 23 22 22 23 23 22 22 22 22 21 21 20 21 21
40 40 40 39 38 36 34 34 34 33 32 32 31 30 29 29 29 29 30 29 28 28 27 26 27 27 27 27 25 23 23 24 24 24 24 24 24 23 23 23 23 23
35 37 38 39 39 38 37 37 37 36 36 34 33 32 31 30 29 29 29 29 29 28 28 29 32 31 30 30 29 26 24 25 26 26 26 26 25 25 25 26 26 26
29 30 32 35 37 38 38 38 37 37 38 38 36 35 34 34 32 30 29 30 30 29 30 31 32 31 31 31 30 27 26 26 26 26 26 26 26 26 27 28 28 28
26 26 28 31 34 35 35 36 36 37 39 40 40 38 38 38 36 33 31 30 29 28 30 30 29 30 29 28 27 26 26 26 26 26 26 26 26 27 29 30 29 29
26 26 27 28 28 29 30 32 33 34 37 41 43 43 42 41 37 33 30 30 29 30 31 30 29 29 29 27 26 26 26 27 27 27 28 28 27 26 27 28 28 28
25 25 25 24 23 22 24 26 27 27 29 32 35 37 38 39 37 34 33 32 32 34 35 33 31 30 30 28 28 28 28 29 30 29 28 29 28 26 26 26 28 28
22 22 21 20 18 17 19 19 19 20 23 24 24 24 26 28 30 31 34 37 38 38 39 39 36 33 30 27 26 28 30 30 30 29 29 28 28 27 27 27 29 29
Wind_Direction
204 201 200 199 198 198 197 198 198 199 201 202 206 209 208 210 211 212 217 221 224 226 224 224 224 225 228 229 230 233 235 235 231 231 228 221 218 218 221 226 229 234
205 202 202 203 203 204 203 204 205 203 204 207 211 212 211 217 220 218 220 221 224 227 225 225 225 224 227 230 234 238 242 245 240 233 231 229 226 225 226 229 232 237
206 202 202 205 205 207 208 208 209 208 208 212 216 216 213 218 222 222 224 225 225 227 228 229 227 225 229 231 235 239 240 244 245 238 233 233 234 233 233 235 237 240
209 204 202 205 206 209 210 209 211 212 212 213 214 216 217 218 221 224 228 229 230 231 230 232 231 230 234 235 236 238 238 242 243 240 244 244 239 238 240 247 254 257
212 209 206 207 209 212 212 210 213 214 216 216 215 218 220 221 223 228 232 233 234 236 236 236 235 235 239 240 241 243 244 247 246 239 242 248 245 242 244 252 261 269
216 215 212 212 212 214 214 214 216 217 218 220 220 221 222 223 225 228 233 235 235 235 236 238 238 239 243 244 246 252 255 259 263 254 243 243 246 248 254 261 265 269
220 220 219 217 216 216 217 217 219 220 221 223 225 225 224 225 227 228 230 234 235 234 235 237 239 241 247 250 251 257 262 267 272 269 261 256 257 262 269 274 275 276
224 225 224 223 220 220 220 221 223 224 225 228 229 230 229 228 228 228 231 234 234 236 238 239 239 239 245 251 254 257 260 265 269 266 263 264 268 272 277 280 280 282
225 227 227 227 225 224 224 224 227 228 229 231 232 232 231 231 232 231 232 235 236 238 240 242 240 238 243 246 249 252 252 255 262 263 263 266 270 273 274 277 280 283
226 227 228 229 228 228 228 228 230 232 233 231 231 235 235 233 233 235 236 236 238 240 241 242 243 241 244 246 245 248 250 253 258 262 264 265 267 270 271 275 278 281
227 228 229 229 229 230 230 230 232 235 237 233 229 231 236 238 236 236 240 240 240 243 243 243 245 244 245 246 247 248 250 252 255 258 261 264 265 268 269 271 274 276
230 231 231 231 231 231 231 230 232 236 240 239 235 232 232 238 240 237 239 242 242 245 247 246 247 247 246 247 247 249 249 251 255 257 259 261 263 266 268 270 274 275
230 233 235 234 234 233 232 231 231 234 237 236 238 238 233 234 240 240 239 242 245 247 249 250 251 250 249 248 248 250 252 253 254 256 257 258 260 263 266 269 272 275
230 232 234 235 236 235 235 235 234 235 237 234 232 238 237 234 237 241 242 243 246 249 250 253 254 254 254 253 250 250 251 253 254 255 257 258 258 259 262 267 270 272
232 232 233 234 236 237 237 238 238 238 241 242 239 240 242 238 236 239 243 244 246 248 251 254 256 257 256 254 252 251 251 252 253 253 252 255 257 259 260 264 267 269
234 235 235 234 235 239 240 239 240 241 242 245 246 247 248 247 242 241 243 246 248 250 252 255 258 258 256 254 254 255 255 254 255 256 254 255 259 260 260 262 265 267
236 238 240 238 234 237 240 241 241 242 243 245 247 249 250 251 248 246 246 247 250 253 254 255 257 258 257 256 255 255 256 257 259 262 263 262 263 262 263 264 266 268
238 239 242 244 241 238 240 243 243 244 244 244 246 249 250 251 250 249 248 247 250 253 254 254 256 256 256 258 257 255 256 258 260 263 265 265 264 265 266 267 268 269
240 240 242 245 246 245 244 245 246 246 245 244 245 247 249 251 250 249 248 247 248 250 252 254 255 255 255 256 256 256 257 258 259 261 263 264 265 266 268 268 269 269
241 242 243 245 246 247 247 245 246 246 245 244 244 245 246 247 249 249 249 248 246 247 250 252 253 254 255 257 258 257 257 257 258 259 260 262 264 265 267 268 269 270
244 245 246 247 247 247 246 245 245 245 245 243 243 244 245 244 245 246 248 247 245 244 244 246 247 250 253 257 259 258 256 256 257 257 258 260 262 264 265 266 268 269
246 246 247 249 249 247 246 246 246 245 245 245 244 245 244 243 240 239 240 243 243 241 240 242 246 250 252 254 257 259 259 258 258 257 257 259 261 263 264 263 263 264
242 243 243 245 247 247 246 245 245 244 244 243 243 243 242 241 240 237 237 242 246 245 244 245 248 252 254 255 257 259 259 259 259 258 257 255 254 255 257 259 261 264
240 240 240 242 245 247 247 246 245 244 243 242 242 242 242 242 243 244 243 245 248 250 251 251 249 251 255 259 258 258 258 258 258 257 256 254 253 252 254 258 261 263
237 237 239 241 244 243 242 243 244 245 245 246 247 248 249 247 246 247 246 246 247 251 254 254 252 250 253 256 256 255 255 256 257 258 259 261 262 261 260 261 263 263
231 232 234 236 236 233 232 234 238 241 243 248 252 255 257 256 253 250 248 246 247 250 253 254 252 249 249 252 255 255 254 255 258 260 261 264 266 265 262 261 263 267
Height
3241 3242 3243 3244 3245 3246 3246 3247 3247 3248 3249 3250 3250 3251 3252 3252 3253 3253 3254 3254 3255 3255 3256 3256 3256 3257 3257 3257 3258 3258 3258 3258 3259 3259 3259 3260 3260 3260 3261 3261 3260 3261
3240 3241 3242 3243 3244 3245 3246 3247 3247 3248 3248 3249 3250 3250 3252 3252 3253 3253 3254 3254 3255 3255 3256 3256 3256 3257 3257 3257 3258 3258 3258 3258 3258 3258 3259 3259 3260 3260 3260 3260 3260 3260
3239 3240 3242 3243 3244 3245 3245 3246 3247 3248 3248 3249 3250 3250 3251 3252 3252 3253 3254 3254 3255 3255 3255 3256 3256 3256 3257 3257 3257 3257 3257 3258 3258 3258 3258 3259 3259 3260 3260 3260 3260 3260
3238 3239 3241 3242 3243 3244 3245 3246 3246 3247 3248 3248 3249 3250 3250 3251 3252 3253 3253 3254 3254 3255 3255 3256 3256 3256 3257 3257 3257 3257 3257 3258 3258 3257 3258 3259 3259 3259 3260 3260 3260 3260
3237 3238 3240 3241 3242 3243 3244 3245 3246 3246 3247 3248 3249 3249 3250 3251 3252 3252 3253 3253 3254 3255 3255 3255 3256 3256 3257 3257 3257 3258 3258 3258 3257 3257 3258 3259 3259 3259 3259 3259 3260 3260
3236 3237 3239 3240 3241 3242 3243 3244 3245 3246 3247 3247 3248 3249 3249 3250 3251 3252 3252 3253 3253 3254 3254 3255 3255 3256 3256 3257 3257 3258 3258 3258 3258 3258 3258 3259 3259 3259 3259 3259 3260 3260
3235 3236 3237 3239 3240 3241 3242 3243 3244 3245 3246 3246 3247 3248 3249 3250 3250 3251 3252 3252 3253 3253 3254 3254 3255 3255 3256 3256 3257 3257 3258 3258 3258 3258 3258 3259 3259 3259 3259 3259 3260 3260
3234 3235 3236 3238 3239 3240 3241 3242 3243 3244 3244 3245 3246 3247 3248 3249 3249 3250 3251 3251 3252 3252 3253 3253 3254 3255 3255 3256 3256 3257 3257 3257 3258 3258 3258 3258 3259 3259 3259 3259 3260 3260
3232 3233 3235 3236 3237 3239 3240 3241 3241 3242 3243 3244 3245 3246 3247 3248 3248 3249 3249 3250 3251 3251 3252 3252 3253 3254 3254 3255 3255 3256 3257 3257 3257 3258 3258 3258 3258 3258 3259 3259 3259 3259
3231 3232 3233 3234 3236 3237 3238 3239 3240 3241 3242 3243 3244 3245 3245 3246 3247 3247 3248 3249 3249 3250 3251 3251 3252 3253 3253 3254 3255 3255 3256 3256 3256 3257 3257 3257 3258 3258 3258 3259 3259 3259
3229 3230 3232 3233 3234 3235 3236 3237 3238 3239 3239 3240 3242 3243 3244 3244 3245 3246 3247 3247 3248 3249 3249 3250 3251 3252 3252 3253 3254 3254 3255 3255 3256 3256 3256 3257 3257 3257 3258 3258 3258 3258
3228 3229 3230 3231 3232 3233 3234 3235 3236 3237 3238 3238 3239 3241 3242 3243 3243 3244 3245 3246 3247 3248 3248 3249 3250 3250 3251 3252 3253 3253 3253 3254 3254 3255 3255 3256 3256 3256 3257 3257 3258 3258
3226 3227 3228 3229 3230 3231 3232 3233 3234 3235 3236 3237 3238 3239 3240 3241 3242 3243 3244 3245 3246 3246 3247 3248 3248 3249 3250 3251 3251 3252 3252 3253 3253 3254 3254 3254 3255 3255 3256 3256 3256 3257
3224 3224 3226 3227 3228 3229 3230 3231 3232 3233 3234 3235 3236 3237 3238 3239 3240 3241 3242 3243 3244 3245 3245 3246 3247 3248 3249 3249 3250 3250 3250 3251 3252 3252 3253 3253 3253 3254 3254 3255 3255 3255
3220 3221 3222 3223 3225 3226 3227 3229 3230 3231 3232 3233 3234 3235 3235 3237 3238 3239 3240 3241 3242 3243 3244 3245 3245 3246 3247 3247 3248 3248 3249 3249 3250 3250 3251 3251 3252 3252 3253 3253 3254 3254
3217 3217 3218 3219 3221 3222 3224 3226 3227 3229 3230 3231 3232 3232 3233 3234 3236 3237 3238 3239 3240 3241 3243 3243 3244 3244 3244 3245 3246 3246 3247 3247 3248 3248 3249 3249 3250 3251 3251 3252 3252 3252
3213 3214 3213 3213 3215 3217 3220 3222 3224 3226 3227 3228 3229 3230 3230 3232 3233 3234 3236 3238 3238 3239 3241 3242 3242 3242 3242 3243 3244 3244 3245 3245 3246 3247 3247 3248 3248 3249 3249 3250 3250 3250
3209 3210 3210 3210 3211 3214 3216 3219 3221 3222 3224 3225 3226 3227 3228 3229 3230 3232 3234 3235 3236 3237 3238 3239 3240 3240 3239 3240 3242 3242 3243 3244 3245 3245 3246 3246 3247 3247 3247 3248 3248 3248
3205 3207 3207 3208 3210 3211 3213 3216 3217 3219 3221 3222 3224 3224 3225 3226 3228 3229 3231 3232 3234 3235 3236 3237 3237 3236 3236 3237 3239 3240 3241 3242 3242 3243 3244 3244 3244 3245 3245 3245 3245 3246
3203 3204 3205 3206 3207 3209 3211 3213 3214 3216 3218 3219 3220 3221 3222 3223 3225 3226 3227 3229 3231 3232 3234 3234 3233 3232 3233 3234 3236 3238 3239 3239 3240 3241 3241 3242 3242 3242 3243 3243 3243 3243
3201 3202 3203 3204 3205 3206 3207 3209 3211 3212 3214 3215 3217 3217 3218 3220 3221 3223 3224 3225 3227 3228 3229 3228 3227 3228 3230 3231 3232 3235 3236 3237 3237 3238 3239 3239 3239 3240 3240 3240 3240 3239
3198 3199 3200 3200 3201 3202 3203 3205 3207 3209 3210 3212 3213 3214 3215 3216 3216 3218 3219 3220 3222 3223 3224 3223 3224 3226 3227 3228 3229 3231 3233 3233 3234 3235 3236 3237 3237 3238 3237 3236 3235 3235
3194 3195 3196 3196 3197 3198 3200 3202 3203 3205 3206 3207 3208 3209 3210 3210 3211 3213 3215 3217 3219 3221 3221 3222 3223 3224 3225 3226 3228 3229 3230 3231 3231 3232 3232 3233 3233 3233 3232 3231 3232 3233
3191 3192 3193 3194 3195 3197 3198 3198 3199 3200 3202 3203 3204 3204 3205 3207 3210 3213 3214 3216 3217 3218 3219 3220 3221 3222 3223 3224 3225 3226 3227 3228 3228 3227 3228 3228 3229 3228 3228 3229 3230 3231
3188 3190 3190 3191 3193 3195 3195 3196 3196 3197 3198 3200 3201 3201 3202 3205 3208 3211 3212 3212 3213 3214 3215 3216 3219 3220 3220 3221 3222 3222 3223 3224 3223 3224 3225 3226 3226 3226 3227 3228 3228 3228
3186 3187 3188 3189 3191 3192 3193 3194 3194 3195 3196 3197 3199 3200 3201 3203 3205 3206 3207 3207 3208 3209 3210 3211 3214 3216 3217 3217 3218 3219 3219 3220 3220 3221 3222 3222 3223 3223 3224 3224 3223 3223